STARLINK-34986, 66446

Orbit data source: Space-Track

STARLINK-34986, 66446 is a payload satellite owned by SpaceX/Seattle (US) in LEO that was launched on Tue, 11 Nov 2025 UTC via an FALCON 9 launch vehicle from the Air Force Eastern Test Range (AFETR). Payload-class satellites include a variety of spacecraft equipped with specific instruments for various scientific and technological missions. These include communications satellites like Starlink; space stations such as the ISS; scientific satellites like the Hubble; Earth observation satellites from companies like Planet Labs, Umbra, and HawkEye 360; GPS; miniature CubeSats for education and research; and military/defense satellites.

Loading next visibility...
Identifier
66446, 2025-259AA
Orbit
LEO
Country
Flag of USUS
Related business
Manufacturer
SpaceX/Seattle
Mission
Operational Commercial Communications
Bus & Motor
STARLINK V2MO, Unknown motor
Mass
575 kg wet, ~530 kg dry
Launch date (UTC)
2025-11-11 (7 months ago)
Launch vehicle
FALCON 9
Launch site
Air Force Eastern Test Range (AFETR)
Object type
Payload
Rocket body
Debris
Shape & HBR
Box + 2 Pan, 17.7 m
Radar Cross Section
36.964 m², Large (>1 m²)

Expand to show TLE details & history
Last TLE update: 15 hours ago

TLE from 15 hours ago
0 STARLINK-34986
1 66446U 25259AA  26150.06488362  .00027795  00000-0  10149-2 0  9997
2 66446  42.9966 175.0277 0001558 181.1813 178.9035 15.27606718 31937
Epoch: 2026-05-30T01:33Z
TLE epoch observation values (Epoch: 2026-05-30T01:33:25.944Z)
Latitude
-0.00004°
Longitude
-95.91671°
Altitude
483.813 km
Speed
7.625 km/s
True Right ascension
11h 40m 06s
True Declination
0° 00' 00"
Sunlit
Object was in daylight at epoch
Visualization orbit readout
Latitude
Unknown
Longitude
Unknown
Altitude
Unknown
Speed
Unknown
Apparent Right ascension
Unknown
Apparent Declination
Unknown
Sunlit
N/A
Visualization observer readout
Local Sidereal Time
02:00:23
Azimuth
Unknown
Elevation
Unknown
Doppler factor
Unknown
Orbital elements
Apogee altitude
485.984 km
Perigee altitude
483.846 km
Semi-major axis
6,863.052 km
Eccentricity
0.00016
Inclination
42.9966°
RAAN
175.0277°
Arg. of periapsis
181.1813°
True anomaly
178.90384°
Mean anomaly
178.9035°
Eccentric anomaly
178.90367°
Mean motion
3.8174 °/min
Orbital period
94.31 mins
BSTAR
0.0010149
Loading maneuver chart data...
Computing Atmospheric mass density...
Loading historical data...
Loading historical data...
Loading historical data...
Loading historical data...
Loading historical data...
Loading historical data...
Loading historical data...

Documentation

Showing up to 5 results
|